TimeCDT,TemperatureF,Dew PointF,Humidity,Sea Level PressureIn,VisibilityMPH,Wind Direction,Wind SpeedMPH,Gust SpeedMPH,PrecipitationIn,Events,Conditions,WindDirDegrees,DateUTC
12:15 AM,53.6,44.6,72,30.03,10.0,West,5.8,-,N/A,,Clear,270,2013-05-11 05:15:00
12:35 AM,51.8,44.6,76,30.03,10.0,West,6.9,-,N/A,,Clear,260,2013-05-11 05:35:00
12:55 AM,51.8,44.6,76,30.03,10.0,WSW,5.8,-,N/A,,Clear,250,2013-05-11 05:55:00
1:15 AM,50.0,44.6,82,30.03,10.0,West,5.8,-,N/A,,Clear,260,2013-05-11 06:15:00
1:35 AM,50.0,44.6,82,30.02,10.0,West,4.6,-,N/A,,Clear,260,2013-05-11 06:35:00
1:55 AM,48.2,44.6,87,30.02,10.0,West,6.9,-,N/A,,Clear,260,2013-05-11 06:55:00
2:15 AM,48.2,44.6,87,30.01,10.0,WSW,5.8,-,N/A,,Clear,240,2013-05-11 07:15:00
2:35 AM,48.2,42.8,82,30.00,10.0,WSW,5.8,-,N/A,,Clear,250,2013-05-11 07:35:00
2:55 AM,48.2,42.8,82,30.01,10.0,West,8.1,-,N/A,,Clear,260,2013-05-11 07:55:00
3:15 AM,46.4,42.8,87,30.01,10.0,WSW,8.1,-,N/A,,Partly Cloudy,250,2013-05-11 08:15:00
3:35 AM,46.4,42.8,87,30.01,10.0,WSW,8.1,-,N/A,,Mostly Cloudy,250,2013-05-11 08:35:00
3:55 AM,48.2,44.6,87,30.02,10.0,West,6.9,-,N/A,,Overcast,260,2013-05-11 08:55:00
4:15 AM,48.2,44.6,87,30.02,10.0,West,8.1,-,N/A,,Overcast,270,2013-05-11 09:15:00
4:35 AM,48.2,44.6,87,30.05,10.0,NNW,17.3,-,N/A,,Overcast,330,2013-05-11 09:35:00
4:55 AM,50.0,44.6,82,30.05,10.0,NNW,11.5,-,N/A,,Mostly Cloudy,330,2013-05-11 09:55:00
5:15 AM,50.0,42.8,76,30.06,10.0,NNW,18.4,26.5,N/A,,Partly Cloudy,340,2013-05-11 10:15:00
5:35 AM,51.8,33.8,50,30.07,10.0,North,17.3,28.8,N/A,,Mostly Cloudy,350,2013-05-11 10:35:00
5:55 AM,50.0,32.0,50,30.08,10.0,North,17.3,24.2,N/A,,Overcast,350,2013-05-11 10:55:00
6:15 AM,50.0,32.0,50,30.09,10.0,North,20.7,27.6,N/A,,Mostly Cloudy,350,2013-05-11 11:15:00
6:35 AM,48.2,30.2,50,30.11,10.0,North,17.3,-,N/A,,Clear,350,2013-05-11 11:35:00
6:55 AM,48.2,30.2,50,30.11,10.0,North,17.3,-,N/A,,Clear,350,2013-05-11 11:55:00
7:15 AM,48.2,30.2,50,30.13,10.0,North,15.0,20.7,N/A,,Clear,350,2013-05-11 12:15:00
7:35 AM,50.0,30.2,47,30.13,10.0,North,16.1,-,N/A,,Clear,350,2013-05-11 12:35:00
7:55 AM,50.0,30.2,47,30.14,10.0,North,17.3,24.2,N/A,,Clear,350,2013-05-11 12:55:00
8:15 AM,50.0,30.2,47,30.14,10.0,North,19.6,29.9,N/A,,Clear,350,2013-05-11 13:15:00
8:35 AM,51.8,28.4,41,30.15,10.0,North,20.7,28.8,N/A,,Clear,350,2013-05-11 13:35:00
8:55 AM,51.8,28.4,41,30.16,10.0,North,23.0,29.9,N/A,,Clear,350,2013-05-11 13:55:00
9:15 AM,51.8,26.6,38,30.16,10.0,North,29.9,39.1,N/A,,Clear,350,2013-05-11 14:15:00
9:35 AM,53.6,28.4,38,30.17,10.0,North,21.9,29.9,N/A,,Clear,350,2013-05-11 14:35:00
4:15 PM,57.2,24.8,29,30.19,10.0,NNW,24.2,36.8,N/A,,Clear,340,2013-05-11 21:15:00
4:35 PM,55.4,24.8,31,30.19,10.0,NW,21.9,38.0,N/A,,Clear,320,2013-05-11 21:35:00
5:55 PM,55.4,23.0,29,30.20,10.0,NW,18.4,31.1,N/A,,Clear,320,2013-05-11 22:55:00
6:55 PM,53.6,23.0,30,30.20,10.0,NNW,19.6,27.6,N/A,,Clear,330,2013-05-11 23:55:00
7:35 PM,53.6,23.0,30,30.20,10.0,NNW,16.1,23.0,N/A,,Clear,330,2013-05-12 00:35:00
7:55 PM,51.8,24.8,35,30.20,10.0,NNW,13.8,-,N/A,,Clear,330,2013-05-12 00:55:00
8:35 PM,48.2,24.8,40,30.21,10.0,NNW,11.5,-,N/A,,Clear,330,2013-05-12 01:35:00
9:15 PM,44.6,28.4,53,30.21,10.0,NW,9.2,-,N/A,,Clear,310,2013-05-12 02:15:00
9:35 PM,42.8,28.4,57,30.22,10.0,NW,8.1,-,N/A,,Clear,320,2013-05-12 02:35:00
9:55 PM,42.8,26.6,53,30.22,10.0,NW,8.1,-,N/A,,Clear,310,2013-05-12 02:55:00
10:15 PM,42.8,26.6,53,30.23,10.0,NW,8.1,-,N/A,,Clear,310,2013-05-12 03:15:00
10:35 PM,42.8,26.6,53,30.23,10.0,NW,8.1,-,N/A,,Clear,310,2013-05-12 03:35:00
10:55 PM,42.8,26.6,53,30.23,10.0,NW,6.9,-,N/A,,Clear,320,2013-05-12 03:55:00
11:15 PM,42.8,26.6,53,30.23,10.0,NNW,5.8,-,N/A,,Clear,340,2013-05-12 04:15:00
11:35 PM,42.8,26.6,53,30.23,10.0,NW,4.6,-,N/A,,Clear,310,2013-05-12 04:35:00
11:55 PM,41.0,26.6,57,30.23,10.0,NNW,8.1,-,N/A,,Clear,340,2013-05-12 04:55:00